{"data":{"norad_id":55836,"intl_designator":"2023-030A","name":"TIANHUI 6A","alt_names":[],"object_type":"PAYLOAD","status":"ACTIVE","operator":null,"country":"PRC","launch_date":"2023-03-09","launch_site_code":"TAISC","launch_vehicle":null,"mission":null,"orbit_class":"UNKNOWN","rcs_meters":null,"size_class":null,"mass_kg":null,"dimensions":null,"purposes":[],"wikipedia_slug":null,"has_3d_model":false,"image_url":null,"decayed_at":null,"tle_current":{"epoch":"2026-05-25T03:51:36.055872Z","epoch_age_seconds":57656,"freshness":"FRESH","line1":"1 55836U 23030A   26145.16083398  .00000355  00000+0  26484-3 0  9990","line2":"2 55836  99.0136 153.6749 0002281  59.7252 300.4138 14.01349931164178","mean_motion":14.01349931,"eccentricity":0.0002281,"inclination_deg":99.0136,"raan_deg":153.6749,"arg_perigee_deg":59.7252,"mean_anomaly_deg":300.4138,"bstar":0.00026484,"rev_number":16417,"period_min":102.75805979256,"perigee_km":887.46665674058,"apogee_km":890.78198135433,"semimajor_km":7267.2613190475,"source":"CELESTRAK","updated_at":"2026-05-25T13:37:59.210681Z"}}}